Home > Weather > Richmond > Past weeks

Flag for U.S.A. Weather for the Past 2 Weeks in Richmond, Virginia, U.S.A.

Now
38 °F

Overcast.


Feels Like: 30 °F
Forecast: 32 / 50 °F
Wind: 14 mph from North

Location: Richmond International Airport

Current Time: Feb 8, 2016 at 1:45:28 AM

Latest Report: Feb 8, 2016 at 12:54 AM


Visibility: 10 mi

Pressure: 29.78 "Hg

Humidity: 51%

Dew point: 21 °F

Location of RichmondLocation

Historic Weather in Richmond — Graph

°F

Richmond Temperature Yesterday

Maximum temperature yesterday: 43 °F (at 1:54 PM)
Minimum temperature yesterday: 29 °F (at 12:54 AM)
Average temperature yesterday: 37 °F

High & Low Weather Summary for the Past Weeks

 TemperatureHumidityPressure
High71 °F (Feb 1, 1:54 PM)100% (Feb 3, 3:54 PM)30.50 "Hg (Feb 3, 3:54 PM)
Low16 °F (Jan 25, 3:54 AM)30% (Jan 24, 3:54 PM)29.59 "Hg (Jan 29, 4:54 AM)
Average41 °F69%30.09 "Hg
* Reported Jan 23 11:54 PM — Feb 7 11:54 PM, Richmond, Weather by CustomWeather, © 2016

Note: Actual official high and low records may vary slightly from our data, if they occured in-between our weather recording intervals... More about our weather records

Advertising

Richmond Weather History for the Previous 24 Hours

 ConditionsComfort  
Time TempWeatherWind HumidityBarometerVisibility
11:54 PM
Sun, Feb 7
39 °FOvercast.15 mph48%29.82 "Hg10 mi
10:54 PM38 °FOvercast.14 mph51%29.84 "Hg10 mi
9:54 PM38 °FMostly cloudy.12 mph51%29.86 "Hg10 mi
8:54 PM39 °FOvercast.13 mph50%29.89 "Hg10 mi
7:54 PM40 °FOvercast.10 mph49%29.91 "Hg10 mi
6:54 PM41 °FOvercast.13 mph49%29.90 "Hg10 mi
5:54 PM41 °FOvercast.9 mph51%29.93 "Hg10 mi
4:54 PM42 °FOvercast.8 mph49%29.96 "Hg10 mi
3:54 PM42 °FMostly cloudy.13 mph47%29.98 "Hg10 mi
2:54 PM43 °FMore clouds than sun.10 mph45%29.99 "Hg10 mi
1:54 PM43 °FOvercast.10 mph47%30.01 "Hg10 mi
12:54 PM42 °FOvercast.12 mph51%30.05 "Hg10 mi
11:54 AM41 °FMore clouds than sun.8 mph53%30.11 "Hg10 mi
10:54 AM39 °FOvercast.9 mph60%30.12 "Hg10 mi
9:54 AM36 °FOvercast.9 mph67%30.15 "Hg10 mi
8:54 AM33 °FMore clouds than sun.6 mph82%30.17 "Hg10 mi
7:54 AM32 °FBroken clouds.6 mph82%30.16 "Hg10 mi
6:54 AM32 °FOvercast.No wind82%30.18 "Hg10 mi
5:54 AM31 °FOvercast.5 mph89%30.17 "Hg10 mi
4:54 AM31 °FOvercast.6 mph89%30.19 "Hg10 mi
3:54 AM31 °FOvercast.3 mph85%30.22 "Hg10 mi
2:54 AM31 °FOvercast.No wind82%30.25 "Hg10 mi
1:54 AM29 °FOvercast.No wind85%30.27 "Hg10 mi
Weather by CustomWeather, © 2016

See weather overviewHow to use our weather pages